Theta_e
327 330 331 329 327 327 325 324 324 323 322 320 320 319 318 315 314 313 312 310 308 307 307 308 309 309 309 308 308 310 313 314 313 311 311 312 312 312 311 311 312 313 313 314 314 314 313 312 312 312 312 311
327 328 328 327 326 325 324 323 323 322 321 321 320 319 317 316 314 313 312 310 308 307 306 306 307 307 307 308 309 309 311 312 312 311 311 310 310 309 309 311 310 310 311 313 313 313 312 312 311 311 312 311
327 327 327 327 325 323 322 322 321 320 320 320 319 318 316 315 315 313 312 311 309 308 307 307 307 306 307 307 308 308 308 310 309 308 308 307 308 307 307 310 309 308 308 309 310 309 309 310 310 310 310 311
327 326 326 326 325 323 322 322 321 321 319 318 318 317 316 314 314 313 313 312 311 310 309 309 309 308 309 309 308 308 307 307 306 304 304 304 306 305 306 307 307 306 306 308 308 306 305 306 307 308 308 309
325 326 325 324 324 322 322 322 322 321 319 318 317 316 315 314 314 313 312 312 311 311 310 309 310 310 310 310 309 309 309 307 306 304 303 303 303 303 303 304 304 305 306 307 307 305 303 302 303 305 306 308
325 326 325 323 323 322 322 322 321 320 318 318 316 314 314 314 313 313 312 312 311 310 310 310 310 310 310 310 310 309 309 308 306 305 304 303 302 302 301 302 302 303 304 304 306 305 302 300 301 302 304 306
325 325 325 324 323 322 322 321 320 319 318 317 315 314 314 313 313 313 313 312 311 310 310 309 310 310 310 310 310 309 308 308 307 306 305 303 302 302 301 301 301 301 302 302 304 304 302 300 300 301 302 303
324 325 325 325 324 323 323 321 320 319 318 317 315 314 314 313 313 313 312 311 310 310 309 309 309 310 310 310 310 309 308 308 308 307 305 303 302 302 302 301 301 301 301 301 301 301 301 300 299 300 301 302
321 324 325 324 324 323 322 321 320 319 318 317 315 314 314 313 313 313 312 311 309 309 308 308 309 309 309 309 309 309 310 309 308 309 307 304 303 303 302 301 301 300 300 300 300 299 299 299 299 299 301 302
318 321 323 324 324 322 321 321 320 320 319 318 315 314 314 313 313 312 311 310 309 308 308 308 308 309 309 309 309 309 310 310 309 309 308 306 306 304 303 302 301 301 300 300 300 299 299 299 299 299 300 302
317 318 320 322 323 322 321 320 320 320 319 318 316 315 314 314 314 313 311 310 309 308 307 307 308 308 308 308 309 309 310 310 310 310 309 309 309 307 305 303 302 301 301 300 300 299 299 299 299 299 300 301
317 316 316 319 321 322 321 320 320 320 319 318 317 316 315 316 316 314 312 311 310 309 308 307 308 308 308 308 308 309 309 309 310 310 310 310 310 309 308 306 304 302 301 301 300 299 299 299 298 298 299 299
318 316 315 316 319 322 321 321 321 320 319 319 318 317 316 316 316 316 314 314 313 312 310 309 308 308 308 308 307 307 308 307 308 309 309 310 310 310 310 309 307 305 303 301 301 300 299 299 298 299 299 299
318 317 315 314 316 319 320 321 320 319 319 319 318 316 316 317 317 316 315 315 315 314 313 311 309 308 307 307 307 306 306 306 306 306 306 307 308 308 308 309 308 307 305 302 301 301 300 300 299 299 299 300
319 318 317 315 313 316 319 321 320 319 319 319 318 316 316 317 316 315 315 316 316 315 315 313 310 308 307 307 306 306 305 305 305 304 303 303 304 304 304 304 305 305 304 303 301 300 300 300 299 299 299 299
319 318 317 316 313 313 316 319 319 318 318 318 317 316 316 316 316 315 315 316 316 315 315 315 312 310 308 308 307 306 306 305 304 303 301 299 300 300 300 300 301 301 301 301 300 300 300 299 299 298 298 299
319 319 318 317 314 312 315 318 319 318 318 318 317 316 316 316 316 315 316 315 315 315 315 315 314 312 311 311 310 309 308 307 305 302 300 299 298 297 298 298 298 298 298 298 299 299 299 299 299 298 298 298
318 318 318 317 315 313 313 315 317 318 318 318 317 316 316 316 316 316 315 314 314 314 314 314 314 313 312 312 311 310 309 308 306 302 300 299 298 297 297 297 297 297 297 297 297 297 298 298 298 297 297 297
316 316 317 318 317 315 313 313 315 317 317 317 316 316 315 315 315 315 315 314 313 312 312 313 313 313 312 312 311 310 309 308 306 303 300 299 298 297 297 296 296 296 296 296 295 295 296 296 296 296 295 296
314 314 316 316 316 316 315 314 313 315 316 316 316 316 315 314 314 314 314 314 313 312 311 311 312 312 312 311 311 310 308 307 307 305 302 299 298 297 297 296 296 296 295 295 294 294 294 294 294 294 294 294
312 313 313 313 314 315 315 315 314 314 315 316 316 315 314 314 314 313 312 312 312 312 311 310 309 310 310 310 309 309 308 308 307 306 303 300 298 297 296 296 296 296 295 294 293 293 293 293 293 293 293 293
310 311 310 311 311 312 312 313 313 314 314 314 314 315 314 313 314 313 312 311 311 311 311 310 308 308 308 308 308 307 307 307 307 305 303 300 298 297 296 295 296 296 295 294 293 293 293 293 293 293 293 293
308 309 309 309 309 310 310 311 311 312 312 311 312 312 313 312 313 313 312 312 310 309 309 309 308 307 307 307 306 306 306 306 305 305 304 301 299 297 296 295 295 295 295 294 292 292 292 292 292 292 293 292
307 309 309 308 309 309 308 308 309 309 309 310 310 310 310 310 311 311 312 312 311 310 309 309 308 307 306 306 306 306 305 306 306 306 305 304 301 298 296 295 295 294 294 293 292 292 292 292 292 291 292 292
300 303 304 305 306 306 305 305 307 307 308 308 308 308 309 309 309 309 310 311 311 311 310 309 309 308 307 306 306 306 306 307 307 307 306 304 302 299 297 296 295 294 293 293 292 291 291 291 291 291 291 291
294 295 296 297 297 299 301 303 305 305 305 305 306 306 307 308 308 308 308 308 309 310 310 310 309 308 308 307 306 306 306 306 306 306 305 304 301 299 298 296 295 294 294 293 292 292 291 290 290 290 291 291
290 291 292 293 293 294 296 299 302 303 303 303 303 304 305 305 306 306 306 306 307 307 308 308 308 308 307 307 306 305 306 306 306 304 304 304 302 300 298 295 294 294 294 294 292 291 291 290 290 290 290 290
287 288 290 291 292 292 293 294 297 299 301 302 302 303 303 303 303 304 304 304 305 305 305 306 306 306 306 306 306 306 306 306 306 305 303 304 303 300 298 295 294 293 293 293 293 291 290 290 289 289 290 291
287 287 288 289 291 292 293 294 294 296 298 298 299 300 301 302 302 301 302 302 303 303 303 304 304 305 305 305 305 306 306 306 306 305 305 304 304 303 301 297 294 293 293 292 293 292 291 290 289 290 292 292
286 287 287 288 289 290 290 291 292 293 293 293 293 294 296 298 300 300 300 301 301 301 302 302 302 302 303 303 304 304 304 304 305 305 305 305 304 304 304 301 296 294 293 292 292 291 292 292 292 292 292 291
286 286 286 286 286 287 287 287 288 289 289 290 291 291 291 293 295 297 299 300 300 300 301 301 301 301 301 301 302 302 302 302 303 303 303 303 303 302 302 302 300 297 294 292 293 292 291 292 292 292 292 292
Wind_Speed
14 19 30 33 31 31 30 28 26 22 18 16 14 12 10 9 8 7 9 11 10 11 13 14 15 14 13 14 15 16 18 18 17 16 15 15 15 18 24 30 30 26 23 21 20 19 18 18 17 15 14 13
16 27 30 29 30 28 24 23 22 19 17 19 19 16 15 13 11 10 10 11 12 12 12 12 12 13 13 13 14 13 14 16 16 16 15 14 13 17 26 30 30 29 26 23 20 19 19 18 17 17 15 14
20 28 28 29 30 26 24 21 18 15 15 18 19 17 16 15 14 14 13 13 14 14 12 11 10 10 10 9 11 10 10 12 12 12 11 13 12 16 29 30 29 29 28 25 21 19 19 18 18 18 17 15
20 23 26 31 30 27 24 20 17 16 16 18 18 17 16 14 15 14 14 15 14 13 12 11 10 9 6 6 9 8 7 8 7 5 5 9 11 18 30 29 27 27 26 26 23 20 19 18 18 17 17 16
18 20 27 31 29 28 25 22 21 19 18 19 18 17 16 14 14 14 14 15 15 14 13 13 12 10 8 7 8 8 7 7 7 5 4 6 10 19 28 27 25 25 24 25 24 21 19 17 17 16 16 15
19 23 28 31 28 26 25 24 21 21 21 22 21 18 17 15 14 14 14 15 16 17 17 16 15 13 12 11 11 10 9 9 8 7 6 8 13 20 23 22 22 23 23 23 23 22 19 17 17 16 16 15
17 22 28 32 31 29 27 25 24 24 25 24 23 21 18 16 15 14 15 17 18 19 19 18 17 15 15 15 14 12 11 10 10 9 9 11 14 17 18 19 19 20 21 21 22 22 20 18 17 17 16 16
18 21 30 34 34 34 30 28 29 28 28 27 25 22 19 19 18 17 17 19 20 20 21 20 19 18 18 17 15 14 12 11 10 10 11 12 13 14 15 17 19 19 19 20 20 20 20 19 18 17 16 16
19 22 29 33 32 34 34 33 33 32 31 29 26 24 22 21 20 20 20 22 23 22 22 22 22 22 21 19 17 15 14 13 11 10 12 14 14 14 15 16 18 18 18 18 19 19 19 18 17 17 17 16
15 19 25 32 34 36 37 36 35 34 33 31 28 25 23 22 22 21 22 24 24 24 24 24 24 24 23 20 17 16 15 14 12 11 12 14 15 15 15 16 17 17 17 18 18 19 19 18 17 17 17 16
13 14 20 29 35 37 38 36 35 36 36 33 28 24 21 21 22 22 24 25 25 25 26 26 25 25 24 21 18 17 15 14 14 13 12 13 13 14 15 15 16 17 17 18 18 20 19 18 18 19 18 17
14 12 14 21 28 33 37 36 37 39 36 33 29 25 24 23 22 23 24 25 25 25 26 26 26 25 24 23 21 19 17 17 17 16 15 14 13 13 13 14 16 17 18 18 19 20 20 20 20 19 19 18
14 13 14 15 22 30 38 38 40 40 35 34 34 31 29 26 23 22 22 22 23 25 25 26 26 25 25 24 23 22 20 19 19 18 17 17 16 15 14 14 15 16 18 19 20 21 21 21 21 20 20 20
15 13 15 14 17 24 34 41 41 39 37 37 37 35 32 27 23 22 21 23 24 23 24 25 26 26 25 25 24 23 22 22 21 20 20 20 20 19 18 17 17 18 19 20 22 22 22 23 23 23 23 22
17 14 14 15 16 19 27 39 43 39 39 39 38 36 30 24 23 26 26 26 25 22 22 24 26 26 26 26 25 25 23 23 22 21 20 20 21 22 22 21 21 20 20 21 22 23 23 24 26 26 25 25
19 16 15 15 15 16 21 32 43 42 41 40 38 35 30 27 28 30 29 28 26 23 23 23 25 26 26 25 24 24 23 22 22 21 20 19 20 21 22 23 23 22 22 22 22 23 24 25 27 27 27 26
19 17 16 15 14 13 16 24 37 43 42 41 39 36 35 34 32 31 30 28 26 25 25 25 25 25 25 25 23 22 22 22 23 22 22 21 21 22 23 24 24 25 25 25 24 24 25 26 27 28 28 27
18 17 17 16 13 12 12 16 26 36 41 42 41 39 39 36 33 31 29 29 29 29 28 28 27 26 26 25 24 23 23 24 24 24 24 23 24 24 25 25 26 26 27 27 27 26 26 27 28 28 28 27
15 16 17 18 16 13 12 12 17 27 37 42 42 41 41 39 35 33 30 31 32 33 32 30 29 28 27 26 25 24 24 24 24 25 25 25 25 26 26 27 27 27 27 27 28 28 29 29 29 29 28 28
10 12 14 17 18 17 15 14 15 20 29 38 43 44 45 42 38 36 35 34 33 34 35 33 32 30 29 28 26 26 25 25 25 26 26 26 26 26 27 28 28 28 27 27 28 28 29 29 30 30 30 30
7 8 9 11 13 16 18 18 19 20 24 31 39 44 46 43 40 40 39 37 35 35 35 35 35 33 32 30 28 27 27 27 26 26 27 27 27 27 28 28 28 28 28 27 27 28 28 29 28 28 29 30
7 6 6 5 6 8 13 17 20 23 24 28 33 39 44 43 42 41 40 39 39 37 36 37 37 36 34 33 31 30 29 29 28 28 28 28 28 28 28 28 28 28 28 27 27 27 27 27 27 27 28 29
7 5 5 4 4 3 4 8 12 17 21 25 27 32 37 40 41 41 41 42 42 39 37 38 39 38 37 35 34 34 33 32 31 30 29 30 30 29 28 27 26 26 26 26 26 26 26 26 26 26 27 28
9 7 7 7 7 6 6 5 5 8 12 18 22 25 28 30 34 37 39 40 40 39 38 38 38 39 39 37 36 36 35 33 32 31 31 31 31 30 29 28 27 26 25 26 25 25 25 25 25 26 27 28
18 15 15 16 15 13 14 12 8 5 6 9 13 19 23 25 27 30 33 35 37 38 39 39 39 40 41 40 39 38 36 34 34 33 33 33 32 31 30 29 29 27 26 26 26 26 26 27 27 27 27 28
26 24 22 22 22 19 17 14 11 9 7 5 6 10 16 19 23 26 28 30 34 36 38 40 42 43 43 43 43 41 37 37 37 36 35 35 34 33 31 31 31 30 29 29 29 29 28 27 27 28 29 30
28 26 24 23 23 21 17 13 10 9 9 9 8 6 7 11 15 19 23 25 28 32 35 39 41 43 44 45 45 42 40 39 39 40 38 36 35 35 33 33 33 33 32 31 30 29 28 28 28 28 31 33
29 26 23 22 20 20 17 13 10 9 9 10 11 10 8 7 8 11 15 18 21 24 28 33 37 40 42 44 45 44 43 42 42 43 41 38 37 37 36 36 36 34 33 34 33 30 27 25 24 26 32 36
30 28 26 24 21 18 15 14 14 13 12 14 16 15 13 12 11 11 11 12 15 17 20 25 30 35 38 41 43 45 46 46 45 45 43 41 40 39 39 39 38 36 35 37 37 34 28 21 21 28 33 34
30 30 29 29 26 24 23 23 23 22 22 22 21 18 16 15 15 15 14 13 13 14 15 17 21 26 32 36 40 42 44 46 46 46 46 45 44 43 42 41 39 39 38 38 39 39 36 28 24 28 30 30
29 29 29 29 28 27 27 26 25 25 24 24 23 21 19 16 15 15 15 15 15 14 14 15 16 18 23 29 35 39 41 44 45 47 47 47 46 46 45 43 43 42 41 40 41 42 42 38 32 26 25 28
Wind_Direction
255 215 187 181 182 173 166 170 177 182 194 209 218 217 208 191 175 179 185 184 179 177 183 185 189 185 175 173 171 173 172 176 181 170 167 177 182 183 172 165 166 167 169 174 176 178 176 173 169 163 160 154
243 205 192 188 183 175 174 182 189 193 203 215 221 220 212 200 182 175 179 174 170 174 173 173 182 185 179 167 160 165 168 176 179 169 173 186 195 190 172 167 170 171 173 176 178 181 179 176 170 164 162 158
224 201 200 198 188 181 182 189 198 204 212 217 218 211 202 194 184 181 183 179 178 180 173 163 165 168 166 148 143 151 157 168 174 170 178 191 203 186 173 171 172 173 176 178 180 184 183 179 175 172 170 164
221 203 200 199 196 193 190 197 216 226 223 218 217 208 197 188 182 184 186 189 190 192 190 175 169 171 171 151 146 147 147 148 151 156 165 192 204 181 174 175 173 175 178 180 184 187 187 183 181 180 177 171
236 221 205 200 201 203 202 210 222 227 219 211 212 204 196 190 185 186 184 188 190 191 193 184 182 191 201 202 181 173 163 141 131 135 134 173 188 176 177 179 178 180 180 184 187 189 192 190 187 187 185 179
236 222 214 207 206 211 217 218 218 219 213 206 203 195 191 192 192 193 190 188 189 188 187 184 187 193 198 204 202 198 184 156 139 140 139 156 172 175 180 184 185 187 186 188 191 191 194 196 195 193 190 183
246 230 224 217 214 221 229 221 211 211 207 202 198 193 194 197 195 196 196 196 194 189 184 183 185 190 192 195 202 202 190 174 158 155 155 160 171 176 185 189 191 192 192 194 195 194 193 198 201 199 196 190
266 248 227 224 225 225 228 218 206 205 203 200 198 197 199 198 198 201 201 198 194 188 184 183 184 187 189 193 201 201 198 192 180 174 166 165 174 180 189 194 194 194 196 199 201 200 197 200 203 202 199 194
269 256 227 226 231 224 220 214 206 204 202 200 198 200 202 198 201 205 201 196 192 190 187 185 186 187 191 198 205 209 214 213 202 192 176 172 180 186 192 197 198 198 200 203 206 206 203 205 207 205 200 196
285 268 241 229 228 220 213 210 206 203 202 202 201 202 202 201 205 205 199 195 194 193 191 190 191 192 197 205 211 217 222 222 216 207 190 185 189 191 194 198 202 204 205 207 211 210 206 209 212 208 204 199
312 295 265 237 227 218 209 209 209 207 206 203 204 206 206 208 210 207 200 198 199 198 196 196 198 200 203 208 214 217 218 219 218 213 205 205 204 199 198 200 205 208 211 213 216 213 210 212 214 213 210 204
315 318 293 257 242 225 212 214 215 213 210 207 210 212 210 211 211 210 205 203 206 206 205 204 205 208 209 211 214 218 219 219 220 215 211 216 218 215 213 210 209 210 213 215 215 214 214 214 214 215 214 211
300 312 311 287 264 238 216 216 220 214 212 213 214 212 209 209 210 212 214 217 218 216 216 215 215 215 215 215 217 221 222 222 226 224 218 217 219 223 227 227 224 219 216 215 214 213 215 216 214 215 217 219
284 297 307 310 290 255 225 218 220 215 214 218 216 211 207 204 210 220 228 233 227 223 225 224 223 222 221 221 221 224 225 226 230 231 229 224 220 221 224 228 231 231 227 221 217 215 214 215 216 216 217 221
271 283 296 305 304 282 247 226 220 220 221 222 217 212 207 204 216 228 231 231 225 225 230 228 226 225 224 223 223 227 230 232 236 236 234 230 226 224 223 224 225 228 231 228 225 222 218 216 216 218 218 219
259 272 285 294 301 297 271 236 222 221 221 221 217 211 212 215 222 229 227 223 223 227 232 232 227 225 225 223 223 227 231 236 239 238 234 231 228 226 225 224 221 220 224 227 228 225 222 220 217 219 220 219
253 259 268 282 300 299 281 250 230 223 220 222 220 215 216 218 220 224 224 222 226 230 233 233 229 226 225 225 225 227 231 235 236 234 231 228 226 225 225 223 221 218 217 219 222 224 223 221 219 220 220 220
258 253 250 261 287 296 286 266 245 235 229 224 221 220 221 221 222 221 222 225 228 230 231 232 230 228 227 227 227 228 231 234 235 234 231 230 228 227 226 225 224 221 218 216 216 218 219 220 220 220 220 220
268 260 247 245 257 276 286 282 264 249 239 229 221 224 226 224 225 224 226 230 229 228 229 229 230 229 228 228 228 228 230 233 235 235 233 232 231 229 228 226 226 224 222 220 216 215 215 216 217 217 219 220
287 274 259 247 243 250 263 271 272 262 250 237 226 224 226 226 228 229 230 232 232 231 229 228 230 230 229 228 228 229 230 231 234 236 234 233 233 233 231 228 226 225 224 223 221 219 218 217 215 215 215 217
317 295 280 266 248 240 241 242 249 255 255 248 237 231 228 227 231 234 232 231 233 234 233 231 231 230 230 228 228 230 230 232 234 236 235 234 233 233 233 232 229 226 224 223 222 222 222 221 219 217 216 216
3 340 326 313 284 253 237 231 233 236 241 247 248 245 240 233 234 238 236 235 234 232 233 233 233 233 231 230 229 229 230 232 233 234 235 235 235 233 233 233 233 231 227 223 222 221 222 222 221 219 218 219
13 2 346 351 347 322 246 239 237 232 229 233 239 245 245 241 243 247 243 239 235 232 232 233 234 235 234 232 231 231 230 230 232 233 235 236 236 235 234 234 234 234 231 226 224 222 222 221 221 219 218 218
343 335 327 334 341 348 2 352 284 250 233 230 231 235 240 243 247 252 251 248 244 239 237 238 238 239 239 237 236 236 234 234 236 236 237 237 237 236 235 235 232 231 230 227 223 222 223 223 221 219 218 217
0 351 339 336 337 336 345 357 352 318 264 240 237 237 238 238 239 243 249 253 254 251 247 247 246 243 242 241 241 240 238 240 241 240 240 239 238 237 235 235 233 228 226 223 219 216 217 220 220 219 218 217
16 12 3 356 353 344 335 334 338 345 342 320 283 255 245 242 238 238 242 247 251 254 254 253 250 245 242 242 244 243 241 243 244 242 240 240 239 239 237 237 236 230 224 221 220 218 213 213 217 219 219 217
17 15 11 7 5 0 351 336 324 328 339 341 333 310 276 256 247 242 242 244 247 252 253 253 252 249 244 242 244 245 244 245 247 243 240 240 241 240 237 236 236 234 229 225 221 216 214 214 215 217 220 220
12 9 7 6 6 6 6 358 332 301 283 295 309 316 318 301 280 260 249 245 247 251 253 252 252 250 247 246 246 247 247 248 250 247 243 242 242 240 238 235 235 234 231 230 225 214 210 213 215 219 223 223
7 3 0 358 354 353 355 349 340 327 313 314 314 310 311 312 313 308 286 262 252 249 251 254 254 252 249 247 247 248 249 250 251 250 249 248 246 243 241 237 236 235 231 231 231 226 218 210 212 224 227 226
5 3 1 359 356 354 352 351 352 352 348 347 344 337 328 318 311 310 308 297 278 258 247 250 257 260 258 254 251 249 249 249 249 249 250 250 248 247 246 241 236 236 235 233 231 230 229 227 229 234 231 224
6 4 4 4 4 2 359 357 356 354 349 346 346 346 343 335 321 309 304 303 298 283 263 248 248 260 268 268 262 257 253 251 250 249 249 249 248 247 245 242 238 237 235 235 234 232 230 232 237 241 236 229